map of VKO home
Great Circle Mapper logo
VKO - Airport
Location
City:  Moscow, Russian Federation (Russia)
Name:Vnukovo International Airport
ICAO / IATA:UUWW / VKO

Details
Type:Airport (Aerodrome, Airfield)
Use:Public/Civil, International (customs port of entry)
Latitude:5535'30"N (55.591531)
Longitude:3715'41"E (37.261486)
Datum:WGS 1984
Elevation:685 ft (209 m)
Runways:2
Longest:10039 × 197 ft (3060 × 60 m), paved

Time
Time Zone:UTC+3 (DST+4)

Weather
METAR:UUWW 271000Z 21003MPS 9999 -RA OVC006 12/11 Q1003 NOSIG
TAF:UUWW 270801Z 2709/2809 14005MPS 4000 -RA BR BKN015 OVC100
TEMPO 2706/2718 1400 SHRA BKN004 SCT020CB
FM271800 21004MPS 3000 BR BKN007
TEMPO 2718/2806 1000 BR BKN003

Related Locations
Nearby:
Farthest:CHT: 10743 mi / 17289 km
Waitangi [Tuuta], Chatham Islands, NZ

Find:

   beyond  
but within

Other Information
Maps:
NOTAMs:
Links:
Sources:

  
flag of Russian Federation (Russia)
flag of Moscow
  

Airport Diagram

Airport diagram for VKO

Airport diagram (OBSOLETE) from NGA

Sectional Chart

Flight Planning
at skyvector.com

Satellite Image

Google Maps Satellite View

 

Copyright © 2004-2014 Karl L. Swartz. All rights reserved.
The Great Circle Mapper name and logo are trademarks of the Great Circle Mapper.
All other trademarks mentioned herein belong to their respective owners.
Please see credits for attibutions and further copyright information.

  Follow gcmap on Facebook Follow gcmap on Twitter

hCard Microformat

Geo Microformat